Regional Weather Roundup
Issued by NWS Sioux Falls, SD

Home | Current Version | Previous Version | Graphics & Text | Print | Product List | Glossary On
Versions: 1 2 3 4 5 6 7 8 9 10 11 12 13 14 15 16 17 18 19 20 21 22 23 24 25 26 27 28 29 30 31 32 33 34 35 36 37 38 39 40 41 42 43 44 45 46 47 48 49 50
000
ASUS43 KFSD 052010
RWRFSD

WEATHER ROUNDUP FOR SE SOUTH DAKOTA/SW MINNESOTA/NW IOWA
NATIONAL WEATHER SERVICE SIOUX FALLS SD
300 PM CDT TUE MAY 05 2015

NOTE: "FAIR" INDICATES FEW OR NO CLOUDS BELOW 12,000 FEET WITH NO
SIGNIFICANT WEATHER AND OR OBSTRUCTIONS TO VISIBILITY.


SDZ038>040-050-052>070-052100-
SOUTHEAST SOUTH DAKOTA

CITY           SKY/WX    TMP DP  RH WIND       PRES   REMARKS
BROOKINGS      PTSUNNY   68  55  64 SE21      30.05S
CHAMBERLAIN    CLOUDY    63  52  67 SE13      29.99F
HURON            N/A     73  50  44 S14G28    29.99F
MADISON        CLOUDY    66  55  68 SE17G23   30.04S
MITCHELL       CLOUDY    68  53  58 S13       30.01F
SIOUX FALLS    CLOUDY    69  56  62 SE10G18   30.03F
WINNER         CLOUDY    59  51  75 SE10      29.99F
YANKTON        CLOUDY    66  57  72 SE9       30.02F
$$

MNZ071-072-080-081-089-090-097-098-052100-
SOUTHWEST MINNESOTA

CITY           SKY/WX    TMP DP  RH WIND       PRES   REMARKS
FAIRMONT       CLOUDY    55  50  82 E13G20    30.12F
JACKSON        CLOUDY    59  54  82 SE15      30.12S FOG
LUVERNE        CLOUDY    64  55  72 SE13      30.07S
MARSHALL       PTSUNNY   66  52  59 S18G25    30.08S
MONTEVIDEO     MOSUNNY   73  54  49 S25G31    30.08S
REDWOOD FALLS  CLOUDY    64  53  67 SE14      30.10F
TRACY          CLOUDY    65  56  74 SE16G23   30.09F
WORTHINGTON    CLOUDY    59  54  82 SE17      30.09F
$$

IAZ001>003-012>014-020>022-031-032-NEZ013-014-SDZ071-052100-
NORTHWEST IOWA

CITY           SKY/WX    TMP DP  RH WIND       PRES   REMARKS
CHEROKEE       CLOUDY    70  63  77 S7        30.06F
DENISON        PTSUNNY   73  64  73 S15G21    30.04F
ESTHERVILLE    CLOUDY    56  56 100 SE16      30.11F FOG
LE MARS        CLOUDY    72  61  68 S10       30.05F
ORANGE CITY    CLOUDY    63  57  82 SE7       30.06F
SHELDON        CLOUDY    63  63 100 SE13      30.07S
SIOUX CITY     LGT RAIN  73  61  65 S13       30.03F
SPENCER        CLOUDY    60  58  92 E15       30.10S FOG
STORM LAKE     CLOUDY    70  63  78 CALM      30.08F
$$

ABBREVIATIONS USED IN REMARKS
   TC - TEMPERATURE IN CELSIUS
  WCI - WIND CHILL INDEX
   HX - HEAT INDEX
  VSB - VISIBILITY



USA.gov is the U.S. government's official web portal to all federal, state and local government web resources and services.